• In Deutschland
  • Länderverzeichnis
  • Für 7 Tage
  • Wassertemperatur
  • Satellitenkarten
  • Wetterkarte
  • Widgets
  • user-avatar
    Anmelden

    Stündliche Wetter Nottuln

    Heute, 21 Juli, Samstag

    Zeit Temperatur Niederschläge Wind Luftdruck Luftfeuchtigkeit
    00:00 +21°C° 0 mm 1 m/S 749 mmHg 63%
    01:00 +20°C° 0,3 mm 1 m/S 749 mmHg 67%
    02:00 +20°C° 0,3 mm 1 m/S 749 mmHg 71%
    03:00 +19°C° 0,3 mm 1 m/S 749 mmHg 75%
    04:00 +20°C° 0,2 mm 1 m/S 749 mmHg 74%
    05:00 +20°C° 0,2 mm 1 m/S 749 mmHg 72%
    06:00 +21°C° 0 mm 1 m/S 749 mmHg 65%
    07:00 +23°C° 0 mm 1 m/S 749 mmHg 59%
    08:00 +25°C° 0 mm 1 m/S 749 mmHg 54%
    09:00 +26°C° 0 mm 1 m/S 749 mmHg 48%
    10:00 +27°C° 0 mm 1 m/S 749 mmHg 45%
    11:00 +29°C° 0 mm 1 m/S 749 mmHg 42%
    12:00 +30°C° 0 mm 1 m/S 749 mmHg 39%
    13:00 +30°C° 0 mm 1 m/S 749 mmHg 39%
    14:00 +30°C° 0 mm 1 m/S 749 mmHg 39%
    15:00 +30°C° 0 mm 1 m/S 749 mmHg 38%
    16:00 +29°C° 0 mm 1 m/S 749 mmHg 42%
    17:00 +29°C° 0 mm 1 m/S 749 mmHg 45%
    18:00 +28°C° 0 mm 1 m/S 749 mmHg 49%
    19:00 +26°C° 0,1 mm 2 m/S 749 mmHg 55%
    20:00 +25°C° 0,1 mm 2 m/S 749 mmHg 61%
    21:00 +22°C° 0,1 mm 3 m/S 750 mmHg 67%
    22:00 +21°C° 0,2 mm 3 m/S 750 mmHg 72%
    23:00 +20°C° 0,2 mm 2 m/S 750 mmHg 78%

    Morgen, 22 Juli, Sonntag

    Zeit Temperatur Niederschläge Wind Luftdruck Luftfeuchtigkeit
    00:00 +19°C° 0,2 mm 2 m/S 750 mmHg 84%
    01:00 +18°C° 0,1 mm 2 m/S 750 mmHg 86%
    02:00 +17°C° 0,1 mm 2 m/S 750 mmHg 87%
    03:00 +17°C° 0,1 mm 2 m/S 750 mmHg 89%
    04:00 +17°C° 0 mm 2 m/S 750 mmHg 85%
    05:00 +18°C° 0 mm 2 m/S 750 mmHg 81%
    06:00 +18°C° 0 mm 3 m/S 751 mmHg 77%
    07:00 +20°C° 0 mm 3 m/S 751 mmHg 69%
    08:00 +22°C° 0 mm 3 m/S 751 mmHg 60%
    09:00 +25°C° 0 mm 3 m/S 751 mmHg 52%
    10:00 +26°C° 0 mm 3 m/S 751 mmHg 49%
    11:00 +27°C° 0 mm 3 m/S 751 mmHg 46%
    12:00 +28°C° 0 mm 3 m/S 751 mmHg 43%
    13:00 +28°C° 0 mm 3 m/S 751 mmHg 45%
    14:00 +27°C° 0 mm 3 m/S 751 mmHg 46%
    15:00 +27°C° 0 mm 4 m/S 751 mmHg 48%
    16:00 +27°C° 0 mm 3 m/S 751 mmHg 51%
    17:00 +26°C° 0 mm 3 m/S 751 mmHg 54%
    18:00 +25°C° 0 mm 2 m/S 751 mmHg 58%
    19:00 +24°C° 0 mm 2 m/S 751 mmHg 62%
    20:00 +21°C° 0 mm 2 m/S 752 mmHg 67%
    21:00 +21°C° 0 mm 1 m/S 752 mmHg 72%
    22:00 +20°C° 0 mm 1 m/S 752 mmHg 76%
    23:00 +19°C° 0 mm 1 m/S 752 mmHg 79%

    übermorgen, 23 Juli, Montag

    Zeit Temperatur Niederschläge Wind Luftdruck Luftfeuchtigkeit
    00:00 +19°C° 0 mm 1 m/S 753 mmHg 83%
    01:00 +18°C° 0 mm 1 m/S 752 mmHg 84%
    02:00 +18°C° 0 mm 1 m/S 752 mmHg 86%
    03:00 +18°C° 0 mm 1 m/S 752 mmHg 87%
    04:00 +18°C° 0 mm 1 m/S 753 mmHg 84%
    05:00 +19°C° 0 mm 1 m/S 753 mmHg 81%
    06:00 +20°C° 0 mm 1 m/S 753 mmHg 78%
    07:00 +22°C° 0 mm 1 m/S 753 mmHg 71%
    08:00 +23°C° 0 mm 1 m/S 753 mmHg 65%
    09:00 +25°C° 0 mm 1 m/S 753 mmHg 59%
    10:00 +26°C° 0 mm 1 m/S 753 mmHg 56%
    11:00 +27°C° 0 mm 1 m/S 753 mmHg 52%
    12:00 +28°C° 0 mm 2 m/S 753 mmHg 49%
    13:00 +28°C° 0 mm 2 m/S 753 mmHg 49%
    14:00 +28°C° 0 mm 2 m/S 753 mmHg 49%
    15:00 +29°C° 0 mm 2 m/S 753 mmHg 49%
    16:00 +28°C° 0 mm 2 m/S 753 mmHg 52%
    17:00 +28°C° 0 mm 2 m/S 753 mmHg 54%
    18:00 +27°C° 0 mm 1 m/S 753 mmHg 57%
    19:00 +26°C° 0 mm 2 m/S 753 mmHg 62%
    20:00 +24°C° 0 mm 2 m/S 753 mmHg 67%
    21:00 +23°C° 0 mm 2 m/S 753 mmHg 72%
    22:00 +21°C° 0 mm 2 m/S 753 mmHg 75%
    23:00 +20°C° 0 mm 2 m/S 753 mmHg 77%

    24 Juli, Dienstag

    Zeit Temperatur Niederschläge Wind Luftdruck Luftfeuchtigkeit
    00:00 +21°C° 0 mm 1 m/S 753 mmHg 80%
    01:00 +21°C° 0 mm 1 m/S 753 mmHg 81%
    02:00 +20°C° 0 mm 1 m/S 753 mmHg 82%
    03:00 +20°C° 0 mm 1 m/S 753 mmHg 83%
    04:00 +21°C° 0 mm 1 m/S 753 mmHg 79%
    05:00 +22°C° 0 mm 1 m/S 753 mmHg 75%
    06:00 +23°C° 0 mm 1 m/S 752 mmHg 72%
    07:00 +25°C° 0 mm 1 m/S 752 mmHg 65%
    08:00 +26°C° 0 mm 1 m/S 752 mmHg 59%
    09:00 +28°C° 0 mm 2 m/S 752 mmHg 52%
    10:00 +29°C° 0 mm 2 m/S 752 mmHg 49%
    11:00 +30°C° 0 mm 2 m/S 752 mmHg 45%
    12:00 +31°C° 0 mm 2 m/S 751 mmHg 42%
    13:00 +31°C° 0 mm 2 m/S 751 mmHg 41%
    14:00 +32°C° 0 mm 2 m/S 751 mmHg 40%
    15:00 +32°C° 0 mm 2 m/S 751 mmHg 40%
    16:00 +31°C° 0 mm 2 m/S 751 mmHg 43%
    17:00 +31°C° 0 mm 2 m/S 751 mmHg 46%
    18:00 +30°C° 0 mm 2 m/S 751 mmHg 49%
    19:00 +28°C° 0 mm 2 m/S 751 mmHg 53%
    20:00 +27°C° 0 mm 2 m/S 751 mmHg 57%
    21:00 +25°C° 0 mm 2 m/S 751 mmHg 61%
    22:00 +25°C° 0 mm 2 m/S 751 mmHg 63%
    23:00 +24°C° 0 mm 2 m/S 751 mmHg 65%

    25 Juli, Mittwoch

    Zeit Temperatur Niederschläge Wind Luftdruck Luftfeuchtigkeit
    00:00 +24°C° 0 mm 2 m/S 751 mmHg 68%
    01:00 +23°C° 0 mm 2 m/S 751 mmHg 69%
    02:00 +23°C° 0 mm 2 m/S 751 mmHg 70%
    03:00 +23°C° 0 mm 2 m/S 751 mmHg 71%
    04:00 +23°C° 0 mm 2 m/S 751 mmHg 69%
    05:00 +24°C° 0 mm 2 m/S 751 mmHg 68%
    06:00 +25°C° 0 mm 2 m/S 752 mmHg 66%
    07:00 +27°C° 0 mm 2 m/S 752 mmHg 60%
    08:00 +29°C° 0 mm 2 m/S 752 mmHg 54%
    09:00 +30°C° 0 mm 2 m/S 752 mmHg 47%
    10:00 +31°C° 0 mm 2 m/S 752 mmHg 45%
    11:00 +32°C° 0 mm 1 m/S 752 mmHg 42%
    12:00 +32°C° 0 mm 1 m/S 751 mmHg 39%
    13:00 +33°C° 0 mm 1 m/S 751 mmHg 39%
    14:00 +33°C° 0 mm 1 m/S 751 mmHg 39%
    15:00 +31°C° 0 mm 0 m/S 751 mmHg 39%
    16:00 +32°C° 0 mm 1 m/S 751 mmHg 42%
    17:00 +31°C° 0 mm 1 m/S 751 mmHg 45%
    18:00 +30°C° 0 mm 1 m/S 751 mmHg 48%
    19:00 +29°C° 0 mm 2 m/S 752 mmHg 52%
    20:00 +27°C° 0 mm 2 m/S 752 mmHg 56%
    21:00 +26°C° 0 mm 2 m/S 752 mmHg 60%
    22:00 +25°C° 0 mm 2 m/S 752 mmHg 63%
    23:00 +25°C° 0 mm 2 m/S 752 mmHg 66%

    26 Juli, Donnerstag

    Zeit Temperatur Niederschläge Wind Luftdruck Luftfeuchtigkeit
    00:00 +24°C° 0 mm 1 m/S 753 mmHg 69%
    01:00 +24°C° 0 mm 1 m/S 752 mmHg 70%
    02:00 +23°C° 0 mm 1 m/S 752 mmHg 71%
    03:00 +23°C° 0 mm 1 m/S 752 mmHg 73%
    04:00 +24°C° 0 mm 1 m/S 753 mmHg 70%
    05:00 +25°C° 0 mm 1 m/S 753 mmHg 68%
    06:00 +26°C° 0 mm 1 m/S 753 mmHg 66%
    07:00 +28°C° 0 mm 1 m/S 753 mmHg 59%
    08:00 +29°C° 0 mm 1 m/S 753 mmHg 53%
    09:00 +31°C° 0 mm 1 m/S 753 mmHg 46%
    10:00 +32°C° 0 mm 2 m/S 753 mmHg 43%
    11:00 +34°C° 0 mm 2 m/S 753 mmHg 40%
    12:00 +34°C° 0 mm 2 m/S 753 mmHg 37%
    13:00 +34°C° 0 mm 2 m/S 753 mmHg 37%
    14:00 +34°C° 0 mm 2 m/S 753 mmHg 37%
    15:00 +34°C° 0 mm 2 m/S 752 mmHg 36%
    16:00 +34°C° 0 mm 2 m/S 752 mmHg 39%
    17:00 +32°C° 0 mm 2 m/S 752 mmHg 42%
    18:00 +31°C° 0 mm 2 m/S 752 mmHg 45%
    19:00 +30°C° 0 mm 2 m/S 753 mmHg 48%
    20:00 +28°C° 0 mm 2 m/S 753 mmHg 52%
    21:00 +27°C° 0 mm 2 m/S 753 mmHg 55%
    22:00 +26°C° 0 mm 2 m/S 753 mmHg 58%
    23:00 +25°C° 0 mm 2 m/S 753 mmHg 60%
    Mehr zeigen